Tracking 28126 objects as of 1-Oct-2023
HD Live streaming from Space Station
objects crossing your sky now

DELTA 1 DEB

Track DELTA 1 DEB now!
10-day predictions


NORAD ID: 10832
Int'l Code: 1976-077CC
Perigee: 1,504.4 km
Apogee: 1,695.0 km
Inclination: 102.2 °
Period: 118.0 minutes
Semi major axis: 7970 km
RCS: 0.094 m2 (small)
Launch date: July 29, 1976
Source: United States (US)
Launch site: AIR FORCE WESTERN TEST RANGE (AFWTR)

Note: This is SATELLITE DEBRIS
Your satellite tracking list
Your tracking list is empty




NASA's NSSDC Master Catalog

Two Line Element Set (TLE):
1 10832U 76077CC  23272.79966312  .00000118  00000-0  15158-2 0  9992
2 10832 102.1999 213.5414 0119595 141.1945 277.3426 12.19992594100768
Source of the keplerian elements: AFSPC